7 * 24
多渠道服务支持
FENGYUN 3G 是中国风云三号气象卫星系列中的一颗极轨气象卫星,主要用于全球气象观测和环境监测。它搭载多种先进遥感仪器,能够获取高精度的气象数据,提升天气预报和气候研究的准确性。该卫星于2020年成功发射,是中国第二代极轨气象卫星的重要组成部分,对防灾减灾、气候变化监测和空间科学研究具有重要意义。
中国
(CN)
| 数据来源 | 国际轨道数据 |
| 星历时间: | 2025-10-28T22:58:09+0800 16小时前 查看轨道信息 |
| 半长轴: | 6787.566km |
| 偏心率: | 0.0020477 |
| 轨道倾角: | 49.994° |
| 近地点辐角 | 300.963° |
| 升交点赤经 | 100.086° |
| 平近点角 | 58.932° |
| 近地点: | 395.532km |
| 远地点: | 423.33km |
| 周期: | 92.754分钟 |
| 每日圈数: | 15.525002 |